x

Milton Blue Hill Observ Weather Station

3:56am - Sun 24th Sep 2017 All times are EDT. -4 hours from GMT.

  • Wind
    9mph
  • Air Temp 66°f
  • Sea Pressure 1017.3mb
  • Milton Blue Hill Observ
  • Milton Blue Hill Observ

More Historic Weather Station data

Upgrade to MSW Pro to gain access to the past 30 days of data for over 8000 Wavebouys and Weather Stations around the globe.

Join

Comparision Forecast

View Surf forecast
   
Sun 09/24 3:56am 9
mph
1017.3mb 66f
2:56am 8
mph
1016.9mb 63f
1:56am 7
mph
1016.6mb 67f
12:56am  -  mph 1017.3mb 68f
Sat 09/23 11:56pm 5
mph
1017.3mb 67f
10:56pm 7
mph
1017.6mb 65f
9:56pm 8
mph
1017.6mb 65f
8:56pm 7
mph
1017.3mb 64f
7:56pm 10
mph
1016.9mb 65f
6:56pm 12
mph
1016.6mb 66f
5:56pm 9
mph
1016.3mb 68f
4:56pm 8
mph
1016.3mb 72f
3:56pm 9
mph
1016.3mb 74f
2:56pm 9
mph
1016.6mb 75f
1:56pm 8
mph
1016.6mb 74f
12:56pm 5
mph
1016.9mb 74f
11:56am 8
mph
1016.9mb 69f
10:56am 8
mph
1017.6mb 65f
9:56am 8
mph
1017.3mb 63f
8:56am 14
mph
1016.6mb 60f
7:56am 13 21 mph 1015.9mb 60f
6:56am 12 20 mph 1015.9mb 60f
5:56am 12 23 mph 1015.9mb 59f
4:56am 14 24 mph 1015.2mb 59f
3:56am 16 25 mph 1015.2mb 59f
2:56am 17 24 mph 1015.6mb 60f
1:56am 13 21 mph 1015.2mb 60f
12:56am 13 25 mph 1015.6mb 60f
Fri 09/22 11:56pm 15 24 mph 1015.6mb 60f
10:56pm 15 29 mph 1015.6mb 60f
9:56pm 18 30 mph 1015.6mb 59f
8:56pm 17 30 mph 1015.6mb 58f
7:56pm 16 30 mph 1015.6mb 57f
6:56pm 20 31 mph 1015.2mb 57f
5:56pm 20 32 mph 1015.2mb 58f
4:56pm 20 33 mph 1015.2mb 57f
3:56pm 18 33 mph 1014.9mb 57f
2:56pm 22 36 mph 1014.9mb 57f
1:56pm 21 33 mph 1015.6mb 56f
12:56pm 18 32 mph 1015.9mb 56f
11:56am 20 35 mph 1015.9mb 56f
10:56am 21 36 mph 1015.9mb 56f
9:56am 24 41 mph 1015.6mb 56f
8:56am 21 32 mph 1015.6mb 55f
7:56am 15 29 mph 1015.6mb 55f
6:56am 18 35 mph 1015.6mb 55f
5:56am 18 33 mph 1015.2mb 56f
4:56am 20 35 mph 1015.2mb 56f
3:56am 17 36 mph 1015.2mb 57f
2:56am 18 36 mph 1015.2mb 58f
1:56am 22 35 mph 1015.9mb 59f
12:56am 23 38 mph 1016.3mb 60f
Thu 09/21 11:56pm 23 36 mph 1015.9mb 63f
10:56pm 23 33 mph 1016.6mb 63f
9:56pm 18 33 mph 1016.6mb 63f
8:56pm 14 25 mph 1016.6mb 64f
7:56pm 15 24 mph 1016.6mb 65f
6:56pm 18 31 mph 1015.9mb 65f
5:56pm 14 29 mph 1015.9mb 66f
4:56pm 16 30 mph 1015.9mb 68f
3:56pm 20 40 mph 1015.6mb 69f
2:56pm 17 40 mph 1015.9mb 68f
1:56pm 22 41 mph 1015.9mb 66f
12:56pm 18 35 mph 1016.3mb 68f
11:56am 25 39 mph 1016.3mb 68f
10:56am 20 40 mph 1016.3mb 66f
9:56am 18 37 mph 1015.6mb 66f
8:56am 16 35 mph 1015.2mb 66f
7:56am 22 39 mph 1014.9mb 66f
6:56am 21 32 mph 1013.9mb 66f
5:56am 21 41 mph 1012.9mb 67f
4:56am 23 37 mph 1012.5mb 68f
3:56am 20 35 mph 1011.9mb 68f
2:56am 17 38 mph 1011.9mb 69f
1:56am 18 35 mph 1011.9mb 69f
12:56am 23 33 mph 1011.9mb 69f
Wed 09/20 11:56pm 17 32 mph 1011.9mb 69f
10:56pm 20 30 mph 1011.9mb 69f
9:56pm 15 27 mph 1011.9mb 69f
8:56pm 13 23 mph 1011.5mb 68f
7:56pm 14 29 mph 1011.9mb 67f
6:56pm 16 36 mph 1011.5mb 67f
5:56pm 21 36 mph 1011.2mb 66f
4:56pm 18 32 mph 1011.2mb 66f
3:56pm 16 30 mph 1010.8mb 66f
2:56pm 20 32 mph 1010.8mb 65f
1:56pm 25 36 mph 1010.5mb 65f
12:56pm 21 38 mph 1010.8mb 65f
11:56am 27 39 mph 1011.2mb 65f
10:56am 17 37 mph 1011.5mb 65f
9:56am 23 36 mph 1011.9mb 65f
8:56am 16 32 mph 1011.9mb 64f